Regional Weather Roundup
Issued by NWS

Home | Current Version | Previous Version | Graphics & Text | Print | Product List | Glossary On
Versions: 1 2 3 4 5 6 7 8 9 10 11 12 13 14 15 16 17 18 19 20 21 22 23 24 25 26 27 28 29 30 31 32 33 34 35 36 37 38 39 40 41 42 43 44 45 46 47 48 49 50
000
ASUS45 KTFX 160419
RWRMT
MONTANA HOURLY WEATHER ROUNDUP
NATIONAL WEATHER SERVICE GREAT FALLS MT
1019 PM MDT MON SEP 15 2014

NOTE: "FAIR" INDICATES FEW OR NO CLOUDS BELOW 12000 FEET WITH NO
SIGNIFICANT WEATHER AND/OR OBSTRUCTIONS TO VISIBILITY.

* THESE STATIONS ARE NOT UNDER NWS QUALITY CONTROL. THEY DO NOT
   REPORT WEATHER SUCH AS PRECIPITATION OR FOG.

MTZ001>007-043-160500-
WEST OF THE DIVIDE
CITY           SKY/WX    TMP DP  RH WIND       PRES   REMARKS
KALISPELL      CLEAR     46  37  71 W5        30.00S
MISSOULA       CLEAR     63  36  37 SE5       30.01R
BUTTE          CLEAR     52  32  47 CALM      30.16S
MULLAN PASS    CLEAR     64  21  19 CALM      30.15S
* LINCOLN      N/A       52  28  40 NE2        N/A
* LOOKOUT PASS N/A       59  33  38 N/A        N/A
* POLSON       N/A       58  28  32 N/A        N/A
* RONAN APT    CLEAR     50  36  59 N/A        N/A
* SEELEY LAKE  N/A       51  31  46 SE1        N/A
* THOMP F APT  CLEAR     63  21  20 N11        N/A
$$

MTZ008-052>055-160500-
SOUTHWEST MONTANA
CITY           SKY/WX    TMP DP  RH WIND       PRES   REMARKS
BOZEMAN        CLEAR     52  36  55 SE6       30.10R
DILLON         CLEAR     55  30  39 SW7       30.11R
W YELLOWSTONE  CLEAR     41  27  58 CALM      30.24S
* THREE FORKS  CLEAR     50  50 100 N/A        N/A
* BOULDER HILL N/A       59  32  36 S6         N/A
* MONIDA PASS  N/A       54  26  34 N/A        N/A
* RAYNOLDS PAS N/A       54  33  45 SE5        N/A
* WHITEHALL    N/A       58  38  47 N3G11      N/A
* WISE RIVER   N/A       56  25  30 SW3G8      N/A
$$

MTZ009>010-012-014-046-048-049-054-160500-
EAST SLOPES AND CENTRAL MONTANA
CITY           SKY/WX    TMP DP  RH WIND       PRES   REMARKS
CUT BANK       CLEAR     52  36  55 NW7       30.03R
GREAT FALLS    CLEAR     55  41  59 E6        30.02S
HELENA         CLEAR     57  36  46 CALM      30.05S
MALMSTROM AFB  CLEAR     54  43  67 S12       30.03S
* CONRAD       CLEAR     54  43  67 N/A        N/A
* EAST GLACIER N/A       47  36  66 VRB8       N/A
* MONARCH      N/A       50  30  46 SW3        N/A
* PENDROY      N/A       53  38  57 W3         N/A
* ROGERS PASS  N/A       53  26  35 NW3        N/A
* SAINT MARY   N/A       47  35  63 SE3G8      N/A
* SWEET GRASS  N/A       62  39  43 S12        N/A
* WHITE SULPH  N/A       52  30  43 E7         N/A
$$

MTZ011-013-016-021-035-040-045-047-050-051-160500-
NORTH CENTRAL MONTANA
CITY           SKY/WX    TMP DP  RH WIND       PRES   REMARKS
HAVRE          CLEAR     54  45  72 E3        30.00R
LEWISTOWN      CLEAR     52  43  72 SE7       30.07S
* CHINOOK      CLEAR     54  45  72 E6        30.00F
* FORT BENTON  CLEAR     61  43  52 CALM      30.00F
* CHESTER      N/A       57  40  53 SE1        N/A
* DENTON       N/A       50  43  77 W1         N/A
* GEYSER       N/A       46  39  77 SW2G8      N/A
* JUDITH GAP   N/A       48  44  86 S6         N/A
* LOMA         N/A       59  42  53 NE7        N/A
$$

MTZ017>020-022>027-061-062-160500-
NORTHEAST MONTANA
CITY           SKY/WX    TMP DP  RH WIND       PRES   REMARKS
GLASGOW        CLEAR     54  37  53 E12       30.03F
GLENDIVE       CLEAR     52  36  55 NE7       30.07F
JORDAN         CLEAR     48  43  83 E3        30.03F
SIDNEY         CLEAR     43  36  76 CALM      30.08S
WOLF POINT     CLEAR     46  36  68 CALM      30.05S
* BEAVER HILL  N/A       53  35  51 E7         N/A
* CIRCLE       N/A       47  40  77 N/A        N/A
* LINDSAY DVD  N/A       48  35  61 N/A        N/A
* NAVAJO       N/A       50  31  48 W9         N/A
* SACO         N/A       49  41  74 E1         N/A
$$

MTZ028>042-056>058-160500-
SOUTHCENTRAL AND SOUTHEAST MONTANA
CITY           SKY/WX    TMP DP  RH WIND       PRES   REMARKS
BAKER          CLEAR     48  41  77 SE6       30.08F
BILLINGS       CLEAR     63  43  48 E6        30.06S
LIVINGSTON     CLEAR     54  32  43 CALM      30.11R
MILES CITY     CLEAR     55  41  59 NE10      30.04S
* LAUREL APT   CLEAR     54  43  67 N/A        N/A
* ROUNDUP APT  CLEAR     57  41  55 N/A        N/A
* ALZADA       N/A       52  45  77 E2         N/A
* HYSHAM       N/A       59  35  41 N/A        N/A
* LAME DEER    N/A       63  38  40 E3         N/A
* REED POINT   N/A       52  46  80 N/A        N/A
* ROSCOE HILL  N/A       59  30  33 S9         N/A
$$

REGIONAL REPORTS...DAKOTAS
CITY           SKY/WX    TMP DP  RH WIND       PRES   REMARKS
WILLISTON      CLEAR     45  34  65 CALM      30.06S
DICKINSON      CLEAR     46  37  71 S9        30.08S
BEACH          N/A       39  39 100 CALM      30.09S
CROSBY         CLEAR     45  39  80 S9        30.05F
TIOGA          CLEAR     39  32  76 CALM      30.10F
WATFORD CITY   CLEAR     41  36  82 CALM      30.06S
BISMARCK       CLEAR     45  39  80 SE6       30.13S
GRAND FORKS    CLEAR     52  39  61 SW8       30.08S
FARGO          CLEAR     55  37  51 SW14      30.13S
BUFFALO SD     CLEAR     52  43  72 SE5       30.04S
RAPID CITY     CLEAR     48  43  83 S6        30.11F
$$

REGIONAL REPORTS...WYOMING/IDAHO/WASHINGTON
CITY           SKY/WX    TMP DP  RH WIND       PRES   REMARKS
GILLETTE       CLEAR     54  45  72 S9        30.11S
SHERIDAN       CLEAR     48  45  89 CALM      30.09S
CODY           CLEAR     57  45  64 SW6       30.16R
YELLOWSTONE LA CLEAR     43  32  65 NW6       30.35R
SALMON         MOCLDY    57  37  47 CALM      30.04R
MULLAN PASS    CLEAR     64  21  19 CALM      30.15S
SAND POINT     CLEAR     48  43  83 CALM      29.95R
SPOKANE        MOCLDY    66  30  26 CALM      29.92S
$$

REGIONAL REPORTS...ALBERTA
CITY           SKY/WX    TMP DP  RH WIND       PRES   REMARKS
CALGARY        FAIR      59  41  51 SE3       29.99F
MEDICINE HAT   CLEAR     55  45  69 SE2       29.96S
EDMONTON       FAIR      43  39  86 S6        29.94S
WATERTON GATE  N/A       55  37  51 S10        N/A
CARDSTON       N/A       54  43  67 SW2        N/A
MILK RIVER     N/A       50  43  77 SE2        N/A
$$

REGIONAL REPORTS...SASKATCHEWAN
CITY           SKY/WX    TMP DP  RH WIND       PRES   REMARKS
SWIFT CURRENT  CLEAR     46  37  71 SE9       30.01S
REGINA         N/A       48  41  77 S6        30.02S
VAL MARIE      N/A       45  39  80 W2         N/A
ASSINIBOIA     N/A       52  36  55 SE7        N/A
CORONACH       N/A       50  34  54 S2         N/A

$$



USA.gov is the U.S. government's official web portal to all federal, state and local government web resources and services.